Home > Weather > Sagamihara > Past weeks

Flag for Japan Past Weather in Sagamihara, Japan — Yesterday and Last 2 Weeks

Now
71 °F

Overcast.


Feels Like: 70 °F
Forecast: 68 / 82 °F
Wind: 5 mph from Northeast

Location: Yokota Ab

Current Time: Jul 25, 2016 at 3:50:54 AM

Latest Report: Jul 25, 2016 at 2:58 AM


Visibility: 10 mi

Pressure: 30.01 "Hg

Humidity: 85%

Dew Point: 66 °F

Location of SagamiharaLocation

Past Weather in Sagamihara — Graph

°F

Sagamihara Temperature Yesterday

Maximum temperature yesterday: 81 °F (at 2:58 PM)
Minimum temperature yesterday: 66 °F (at 5:58 AM)
Average temperature yesterday: 73 °F

High & Low Weather Summary for the Past Weeks

 TemperatureHumidityPressure
High91 °F (Jul 11, 12:58 PM)100% (Jul 10, 3:58 AM)30.05 "Hg (Jul 10, 3:58 AM)
Low65 °F (Jul 23, 4:58 AM)47% (Jul 11, 12:58 PM)29.40 "Hg (Jul 14, 2:58 PM)
Average75 °F82%29.79 "Hg
* Reported Jul 10 1:58 AM — Jul 25 1:58 AM, Sagamihara, Weather by CustomWeather, © 2016

Note: Actual official high and low records may vary slightly from our data, if they occured in-between our weather recording intervals... More about our weather records

Advertising

Sagamihara Weather History for the Previous 24 Hours

Scroll right to see more
 ConditionsComfort  
Time TempWeatherWind HumidityBarometerVisibility
1:58 AM
Mon, Jul 25
72 °FOvercast.3 mph84%30.02 "Hg10 mi
12:58 AM72 °FOvercast.3 mph81%30.02 "Hg10 mi
12:00 AM72 °FPartly cloudy.3 mph83%30.04 "Hg10 mi
11:58 PM
Sun, Jul 24
72 °FPartly cloudy.3 mph82%30.03 "Hg10 mi
10:58 PM74 °FPassing clouds.6 mph79%30.04 "Hg10 mi
9:58 PM74 °FMostly cloudy.5 mph76%30.04 "Hg10 mi
8:58 PM75 °FMostly cloudy.3 mph74%30.04 "Hg10 mi
7:58 PM77 °FOvercast.5 mph72%30.02 "Hg10 mi
6:58 PM78 °FOvercast.5 mph64%30.01 "Hg10 mi
5:58 PM79 °FPartly sunny.1 mph63%30.00 "Hg10 mi
4:58 PM80 °FPartly sunny.3 mph59%29.99 "Hg10 mi
3:58 PM80 °FOvercast.2 mph58%29.99 "Hg10 mi
2:58 PM81 °FScattered clouds.8 mph60%30.00 "Hg10 mi
10:58 AM76 °FPartly sunny.7 mph67%30.02 "Hg10 mi
9:58 AM74 °FOvercast.6 mph71%30.03 "Hg10 mi
8:58 AM75 °FBroken clouds.6 mph70%30.03 "Hg10 mi
7:58 AM72 °FPassing clouds.5 mph75%30.03 "Hg10 mi
6:58 AM71 °FSunny.1 mph78%30.04 "Hg10 mi
5:58 AM66 °FScattered clouds.1 mph90%30.05 "Hg10 mi
4:58 AM66 °FOvercast.No wind89%30.04 "Hg10 mi
3:58 AM66 °FPassing clouds.No wind89%30.04 "Hg10 mi
Weather by CustomWeather, © 2016

See weather overviewHow to use our weather pages